HNTR64 CYTR-CYXU

Flight info

Callsign HNTR64
Flight time N/A
Altitude 4000
Route DCT XORIG DCT DUSUB DCT ANCOL DCT
Aircraft B738/M-SDE2E3FGHIRWXY/LB1

Departure

Time 2026-04-25 20:47
Airport CFB Trenton (CYTR)

Arrival

Time N/A
Airport London International Airport (CYXU)
Time Latitude Longitude Altitude Speed Heading
2026-04-25 20:35 44.11197 -77.53444 283 ft 0 kts 163°
2026-04-25 20:45 44.11196 -77.53444 283 ft 2 kts 163°
2026-04-25 20:45 44.11114 -77.53455 286 ft 21 kts 224°
2026-04-25 20:45 44.11057 -77.53678 283 ft 21 kts 234°
2026-04-25 20:45 44.11008 -77.53760 282 ft 9 kts 247°
2026-04-25 20:46 44.10981 -77.53894 282 ft 18 kts 255°
2026-04-25 20:46 44.10946 -77.54072 286 ft 20 kts 258°
2026-04-25 20:46 44.11001 -77.54244 281 ft 20 kts 320°
2026-04-25 20:46 44.11095 -77.54199 284 ft 23 kts 51°
2026-04-25 20:47 44.11370 -77.53733 286 ft 104 kts 50°
2026-04-25 20:47 44.11986 -77.52690 351 ft 168 kts 51°
2026-04-25 20:47 44.12761 -77.51412 1142 ft 183 kts 52°
2026-04-25 20:47 44.13605 -77.49966 1923 ft 196 kts 56°
2026-04-25 20:48 44.13968 -77.48228 2670 ft 189 kts 100°
2026-04-25 20:48 44.13277 -77.46729 3427 ft 190 kts 143°
2026-04-25 20:48 44.12000 -77.46092 3893 ft 214 kts 172°
2026-04-25 20:48 44.10421 -77.46486 4020 ft 252 kts 203°
2026-04-25 20:49 44.09101 -77.48130 4064 ft 263 kts 233°
2026-04-25 20:49 44.08203 -77.50368 4033 ft 266 kts 242°
2026-04-25 20:49 44.07405 -77.52720 4060 ft 273 kts 243°
2026-04-25 20:49 44.06588 -77.55144 4044 ft 278 kts 242°
2026-04-25 20:50 44.05752 -77.57563 4030 ft 276 kts 242°
2026-04-25 20:50 44.04912 -77.59941 4033 ft 273 kts 241°
2026-04-25 20:50 44.04081 -77.62260 4029 ft 272 kts 241°
2026-04-25 20:50 44.03222 -77.64628 4045 ft 276 kts 241°
2026-04-25 20:51 44.02353 -77.67008 4041 ft 277 kts 240°
2026-04-25 20:51 44.01480 -77.69393 4043 ft 277 kts 240°
2026-04-25 20:51 44.00604 -77.71780 4027 ft 277 kts 239°
2026-04-25 20:51 43.99628 -77.74082 4038 ft 276 kts 234°
2026-04-25 20:52 43.98575 -77.76308 4039 ft 276 kts 233°
2026-04-25 20:52 43.97867 -77.77777 4032 ft 276 kts 232°
2026-04-25 20:52 43.96434 -77.80741 4038 ft 277 kts 233°
2026-04-25 20:52 43.95365 -77.82959 4034 ft 277 kts 233°
2026-04-25 20:53 43.94310 -77.85155 4038 ft 277 kts 233°
2026-04-25 20:53 43.93243 -77.87380 4022 ft 278 kts 233°
2026-04-25 20:53 43.92173 -77.89617 4032 ft 278 kts 233°
2026-04-25 20:53 43.91107 -77.91846 4027 ft 278 kts 233°
2026-04-25 20:54 43.90038 -77.94082 4024 ft 278 kts 233°
2026-04-25 20:54 43.88971 -77.96313 4020 ft 278 kts 233°
2026-04-25 20:54 43.87905 -77.98543 4020 ft 277 kts 233°
2026-04-25 20:54 43.86838 -78.00771 4022 ft 277 kts 234°
2026-04-25 20:55 43.85774 -78.02995 4021 ft 277 kts 233°
2026-04-25 20:55 43.84709 -78.05215 4022 ft 277 kts 233°
2026-04-25 20:55 43.83658 -78.07408 4016 ft 277 kts 233°
2026-04-25 20:55 43.82594 -78.09626 4023 ft 277 kts 233°
2026-04-25 20:56 43.81524 -78.11855 4021 ft 277 kts 233°
2026-04-25 20:56 43.80457 -78.14076 4016 ft 277 kts 233°
2026-04-25 20:56 43.79388 -78.16298 4014 ft 277 kts 233°
2026-04-25 20:56 43.78320 -78.18518 4009 ft 277 kts 233°
2026-04-25 20:57 43.77253 -78.20734 4012 ft 276 kts 233°
2026-04-25 20:57 43.76188 -78.22945 4011 ft 276 kts 233°
2026-04-25 20:57 43.75137 -78.25126 4009 ft 276 kts 233°
2026-04-25 20:57 43.74073 -78.27331 4014 ft 276 kts 233°
2026-04-25 20:58 43.73008 -78.29534 4016 ft 276 kts 233°
2026-04-25 20:58 43.71949 -78.31748 4014 ft 277 kts 236°
2026-04-25 20:58 43.71098 -78.34151 4014 ft 279 kts 245°
2026-04-25 20:58 43.70376 -78.36637 4021 ft 279 kts 247°
2026-04-25 20:59 43.69670 -78.39140 4022 ft 280 kts 247°
2026-04-25 20:59 43.68965 -78.41643 4016 ft 280 kts 247°
2026-04-25 20:59 43.68254 -78.44151 4012 ft 280 kts 247°
2026-04-25 20:59 43.67550 -78.46619 4011 ft 280 kts 247°
2026-04-25 21:00 43.66834 -78.49116 4014 ft 280 kts 247°
2026-04-25 21:00 43.66591 -78.49962 4018 ft 280 kts 247°
2026-04-25 21:00 43.64668 -78.56615 4013 ft 280 kts 247°
2026-04-25 21:01 43.63938 -78.59130 3745 ft 290 kts 247°
2026-04-25 21:01 43.63169 -78.61773 3242 ft 300 kts 246°
2026-04-25 21:01 43.62386 -78.64461 2724 ft 305 kts 246°
2026-04-25 21:01 43.61588 -78.67195 2220 ft 309 kts 246°
2026-04-25 21:02 43.60800 -78.69894 2001 ft 303 kts 246°
2026-04-25 21:02 43.60030 -78.72532 1964 ft 290 kts 246°
2026-04-25 21:02 43.59294 -78.75061 1959 ft 280 kts 248°
2026-04-25 21:02 43.59061 -78.77682 1966 ft 278 kts 283°
2026-04-25 21:03 43.59880 -78.80027 1987 ft 271 kts 319°
2026-04-25 21:03 43.61439 -78.81300 1982 ft 257 kts 355°
2026-04-25 21:03 43.63135 -78.81103 1979 ft 241 kts 30°
2026-04-25 21:03 43.64318 -78.79602 1989 ft 231 kts 66°
2026-04-25 21:04 43.64540 -78.77480 1980 ft 232 kts 101°
2026-04-25 21:04 43.63708 -78.75576 1985 ft 241 kts 137°
2026-04-25 21:04 43.62124 -78.74739 1994 ft 256 kts 173°
2026-04-25 21:04 43.60376 -78.75370 1969 ft 271 kts 209°
2026-04-25 21:05 43.59078 -78.77268 1997 ft 277 kts 235°
2026-04-25 21:05 43.58142 -78.79612 1982 ft 280 kts 243°
2026-04-25 21:05 43.57334 -78.82053 1975 ft 280 kts 245°
2026-04-25 21:05 43.56569 -78.84527 1966 ft 280 kts 246°
2026-04-25 21:06 43.55824 -78.87002 1969 ft 280 kts 246°
2026-04-25 21:06 43.55092 -78.89455 1991 ft 281 kts 247°
2026-04-25 21:06 43.54347 -78.91961 1971 ft 283 kts 247°
2026-04-25 21:06 43.53846 -78.93649 1969 ft 283 kts 247°
2026-04-25 21:07 43.52861 -78.96974 1984 ft 283 kts 247°
2026-04-25 21:07 43.52119 -78.99475 1969 ft 283 kts 248°
2026-04-25 21:07 43.51374 -79.01988 1984 ft 282 kts 247°
2026-04-25 21:07 43.50745 -79.04530 1965 ft 281 kts 265°
2026-04-25 21:08 43.51037 -79.07110 1987 ft 270 kts 302°
2026-04-25 21:08 43.52228 -79.08922 1999 ft 255 kts 334°
2026-04-25 21:08 43.53771 -79.10083 1989 ft 253 kts 340°
2026-04-25 21:08 43.55355 -79.11159 1990 ft 254 kts 340°
2026-04-25 21:09 43.58544 -79.13284 1987 ft 255 kts 340°
2026-04-25 21:09 43.60145 -79.14341 1998 ft 255 kts 341°
2026-04-25 21:09 43.61785 -79.15191 1977 ft 247 kts
2026-04-25 21:10 43.63375 -79.14746 1996 ft 230 kts 37°
2026-04-25 21:10 43.64367 -79.13102 2014 ft 224 kts 66°
2026-04-25 21:10 43.64953 -79.11137 1986 ft 225 kts 68°
2026-04-25 21:10 43.65538 -79.09129 2003 ft 226 kts 69°
2026-04-25 21:11 43.66124 -79.07100 1987 ft 228 kts 69°
2026-04-25 21:11 43.66713 -79.05066 1990 ft 228 kts 69°
2026-04-25 21:11 43.67310 -79.03030 1980 ft 229 kts 69°
2026-04-25 21:11 43.67907 -79.00988 2010 ft 229 kts 70°
2026-04-25 21:12 43.68078 -78.98821 2000 ft 232 kts 99°
2026-04-25 21:12 43.67360 -78.96828 1992 ft 239 kts 129°
2026-04-25 21:12 43.65940 -78.95575 2012 ft 248 kts 154°
2026-04-25 21:12 43.64854 -78.95054 2010 ft 251 kts 156°
2026-04-25 21:13 43.62637 -78.94095 1993 ft 253 kts 157°
2026-04-25 21:13 43.60948 -78.93387 1972 ft 253 kts 158°
2026-04-25 21:13 43.59263 -78.92689 1977 ft 253 kts 158°
2026-04-25 21:13 43.57577 -78.91992 1976 ft 253 kts 157°
2026-04-25 21:14 43.55899 -78.91307 1979 ft 252 kts 158°
2026-04-25 21:14 43.54220 -78.90620 1983 ft 252 kts 158°
2026-04-25 21:14 43.52546 -78.89933 1969 ft 252 kts 158°
2026-04-25 21:14 43.50868 -78.89245 1978 ft 251 kts 158°
2026-04-25 21:15 43.49215 -78.88559 1972 ft 252 kts 158°
2026-04-25 21:15 43.47536 -78.87859 1964 ft 251 kts 158°
2026-04-25 21:15 43.45870 -78.87160 1961 ft 250 kts 158°
2026-04-25 21:15 43.44215 -78.86462 1963 ft 249 kts 157°
2026-04-25 21:16 43.42532 -78.85860 1955 ft 254 kts 171°
2026-04-25 21:16 43.40801 -78.86413 1961 ft 266 kts 208°
2026-04-25 21:16 43.39537 -78.88302 1967 ft 277 kts 244°
2026-04-25 21:16 43.39216 -78.90887 1971 ft 277 kts 280°
2026-04-25 21:17 43.39948 -78.93227 1971 ft 267 kts 316°
2026-04-25 21:17 43.41413 -78.94664 1984 ft 257 kts 339°
2026-04-25 21:17 43.43011 -78.95762 1968 ft 257 kts 339°
2026-04-25 21:17 43.44615 -78.96858 1965 ft 258 kts 339°
2026-04-25 21:18 43.46223 -78.97953 1958 ft 258 kts 339°
2026-04-25 21:18 43.47815 -78.99100 1957 ft 261 kts 329°
2026-04-25 21:18 43.48932 -79.01101 1974 ft 273 kts 292°
2026-04-25 21:18 43.49186 -79.03703 2003 ft 277 kts 270°
2026-04-25 21:19 43.48996 -79.06310 1984 ft 278 kts 261°
2026-04-25 21:19 43.48593 -79.08922 1976 ft 279 kts 257°
2026-04-25 21:19 43.48070 -79.11497 1991 ft 280 kts 253°
2026-04-25 21:19 43.47472 -79.14044 1996 ft 280 kts 252°
2026-04-25 21:20 43.46827 -79.16568 1992 ft 280 kts 250°
2026-04-25 21:20 43.46381 -79.18232 2006 ft 279 kts 250°
2026-04-25 21:20 43.45453 -79.21568 1994 ft 279 kts 249°
2026-04-25 21:20 43.44742 -79.24054 1993 ft 279 kts 248°
2026-04-25 21:21 43.44035 -79.26489 1995 ft 278 kts 249°
2026-04-25 21:21 43.43312 -79.28952 1995 ft 277 kts 248°
2026-04-25 21:21 43.42585 -79.31409 1995 ft 277 kts 249°
2026-04-25 21:21 43.41856 -79.33860 1982 ft 277 kts 249°
2026-04-25 21:22 43.41123 -79.36319 1992 ft 277 kts 248°
2026-04-25 21:22 43.40390 -79.38769 1993 ft 277 kts 248°
2026-04-25 21:22 43.39656 -79.41218 1992 ft 277 kts 249°
2026-04-25 21:22 43.38920 -79.43668 1997 ft 277 kts 248°
2026-04-25 21:23 43.38183 -79.46119 1992 ft 278 kts 249°
2026-04-25 21:23 43.37452 -79.48548 1999 ft 279 kts 249°
2026-04-25 21:23 43.36708 -79.51014 2008 ft 279 kts 249°
2026-04-25 21:23 43.35963 -79.53482 1996 ft 280 kts 249°
2026-04-25 21:24 43.35216 -79.55957 2010 ft 281 kts 249°
2026-04-25 21:24 43.34467 -79.58437 1992 ft 282 kts 249°
2026-04-25 21:24 43.33715 -79.60918 2008 ft 281 kts 249°
2026-04-25 21:24 43.32967 -79.63387 1984 ft 280 kts 249°
2026-04-25 21:25 43.32218 -79.65855 1988 ft 279 kts 249°
2026-04-25 21:25 43.31484 -79.68274 1991 ft 278 kts 249°
2026-04-25 21:25 43.30741 -79.70718 1995 ft 277 kts 249°
2026-04-25 21:25 43.30011 -79.73119 2348 ft 266 kts 249°
2026-04-25 21:26 43.29288 -79.75493 2891 ft 275 kts 248°
2026-04-25 21:26 43.28547 -79.77928 2968 ft 278 kts 249°
2026-04-25 21:26 43.27801 -79.80378 2977 ft 277 kts 249°
2026-04-25 21:26 43.27054 -79.82824 2977 ft 279 kts 249°
2026-04-25 21:27 43.26302 -79.85287 2992 ft 281 kts 248°
2026-04-25 21:27 43.25546 -79.87758 2970 ft 282 kts 249°
2026-04-25 21:27 43.24784 -79.90245 2968 ft 282 kts 249°
2026-04-25 21:27 43.24095 -79.92724 2956 ft 281 kts 260°
2026-04-25 21:28 43.24119 -79.95339 2974 ft 272 kts 289°
2026-04-25 21:28 43.24973 -79.97580 2969 ft 263 kts 316°
2026-04-25 21:28 43.26396 -79.99038 2979 ft 252 kts 341°
2026-04-25 21:28 43.28068 -79.99538 2979 ft 244 kts
2026-04-25 21:29 43.29701 -79.99091 2989 ft 238 kts 26°
2026-04-25 21:29 43.31082 -79.97886 2983 ft 236 kts 43°
2026-04-25 21:29 43.32088 -79.96112 2975 ft 236 kts 61°
2026-04-25 21:29 43.32777 -79.94070 2979 ft 236 kts 66°
2026-04-25 21:30 43.33399 -79.92008 2975 ft 236 kts 66°
2026-04-25 21:30 43.34021 -79.89927 2987 ft 236 kts 66°
2026-04-25 21:30 43.34649 -79.87841 2987 ft 236 kts 66°
2026-04-25 21:30 43.35069 -79.86454 2986 ft 237 kts 66°
2026-04-25 21:31 43.35919 -79.83666 2992 ft 237 kts 66°
2026-04-25 21:31 43.36561 -79.81569 2990 ft 237 kts 66°
2026-04-25 21:31 43.37200 -79.79487 2987 ft 236 kts 66°
2026-04-25 21:31 43.37838 -79.77407 2987 ft 236 kts 66°
2026-04-25 21:32 43.38473 -79.75333 2999 ft 235 kts 67°
2026-04-25 21:32 43.38798 -79.73171 2999 ft 237 kts 89°
2026-04-25 21:32 43.38475 -79.70943 2995 ft 242 kts 109°
2026-04-25 21:32 43.37548 -79.68989 2992 ft 249 kts 131°
2026-04-25 21:33 43.36090 -79.67658 3002 ft 258 kts 154°
2026-04-25 21:33 43.34295 -79.67263 2992 ft 269 kts 181°
2026-04-25 21:33 43.32500 -79.68018 2993 ft 276 kts 210°
2026-04-25 21:33 43.31115 -79.69833 3000 ft 279 kts 237°
2026-04-25 21:34 43.30246 -79.72229 2992 ft 281 kts 248°
2026-04-25 21:34 43.29503 -79.74705 2982 ft 282 kts 249°
2026-04-25 21:34 43.28763 -79.77209 2975 ft 283 kts 249°
2026-04-25 21:34 43.28017 -79.79706 2978 ft 282 kts 249°
2026-04-25 21:35 43.27277 -79.82152 2969 ft 280 kts 249°
2026-04-25 21:35 43.26528 -79.84605 2966 ft 278 kts 249°
2026-04-25 21:35 43.25779 -79.87039 2968 ft 277 kts 249°
2026-04-25 21:35 43.25028 -79.89477 2966 ft 277 kts 249°
2026-04-25 21:36 43.24285 -79.91904 2964 ft 276 kts 251°
2026-04-25 21:36 43.24020 -79.94469 2969 ft 270 kts 281°
2026-04-25 21:36 43.24628 -79.96825 2977 ft 261 kts 308°
2026-04-25 21:36 43.25892 -79.98533 2981 ft 252 kts 334°
2026-04-25 21:37 43.27507 -79.99334 2963 ft 246 kts 358°
2026-04-25 21:37 43.28629 -79.99324 2975 ft 242 kts 13°
2026-04-25 21:37 43.30631 -79.98133 2984 ft 238 kts 39°
2026-04-25 21:37 43.31757 -79.96475 2967 ft 239 kts 58°
2026-04-25 21:38 43.32495 -79.94432 2978 ft 239 kts 66°
2026-04-25 21:38 43.33133 -79.92333 2982 ft 238 kts 66°
2026-04-25 21:38 43.33759 -79.90228 2988 ft 238 kts 66°
2026-04-25 21:38 43.34390 -79.88123 2985 ft 238 kts 66°
2026-04-25 21:39 43.35025 -79.86023 2986 ft 237 kts 66°
2026-04-25 21:39 43.35653 -79.83962 2988 ft 237 kts 66°
2026-04-25 21:39 43.36293 -79.81873 2986 ft 237 kts 66°
2026-04-25 21:39 43.36930 -79.79795 2986 ft 236 kts 66°
2026-04-25 21:40 43.37566 -79.77721 2986 ft 235 kts 66°
2026-04-25 21:40 43.38197 -79.75661 2995 ft 234 kts 66°
2026-04-25 21:40 43.38637 -79.73515 2986 ft 236 kts 85°
2026-04-25 21:40 43.38418 -79.71273 2998 ft 240 kts 105°
2026-04-25 21:41 43.37587 -79.69265 2988 ft 247 kts 127°
2026-04-25 21:41 43.36198 -79.67835 3000 ft 256 kts 152°
2026-04-25 21:41 43.34437 -79.67310 2993 ft 268 kts 178°
2026-04-25 21:41 43.32641 -79.67921 2999 ft 276 kts 206°
2026-04-25 21:42 43.31199 -79.69656 2996 ft 280 kts 235°
2026-04-25 21:42 43.30303 -79.72024 2993 ft 281 kts 248°
2026-04-25 21:42 43.29552 -79.74520 2982 ft 283 kts 249°
2026-04-25 21:42 43.28814 -79.77027 2976 ft 283 kts 249°
2026-04-25 21:43 43.28069 -79.79529 2976 ft 282 kts 249°
2026-04-25 21:43 43.27322 -79.82002 2965 ft 279 kts 249°
2026-04-25 21:43 43.26586 -79.84416 2972 ft 278 kts 249°
2026-04-25 21:43 43.25817 -79.86843 2971 ft 278 kts 242°
2026-04-25 21:44 43.24483 -79.88702 2982 ft 275 kts 205°
2026-04-25 21:44 43.22661 -79.89289 2973 ft 267 kts 173°
2026-04-25 21:44 43.19520 -79.87236 2963 ft 249 kts 124°
2026-04-25 21:45 43.18689 -79.85200 2975 ft 242 kts 104°
2026-04-25 21:45 43.18543 -79.84484 2969 ft 240 kts 97°
2026-04-25 21:45 43.18611 -79.80732 2977 ft 239 kts 81°
2026-04-25 21:45 43.18805 -79.78461 2978 ft 241 kts 80°
2026-04-25 21:46 43.19003 -79.76183 2970 ft 242 kts 80°
2026-04-25 21:46 43.19201 -79.73887 2970 ft 242 kts 80°
2026-04-25 21:46 43.19397 -79.71596 2964 ft 243 kts 80°
2026-04-25 21:46 43.19590 -79.69306 2975 ft 242 kts 81°
2026-04-25 21:47 43.19782 -79.67010 2982 ft 243 kts 80°
2026-04-25 21:47 43.19970 -79.64711 2994 ft 243 kts 80°
2026-04-25 21:47 43.20160 -79.62418 2974 ft 242 kts 81°
2026-04-25 21:47 43.20345 -79.60162 2974 ft 240 kts 81°
2026-04-25 21:48 43.20530 -79.57896 2990 ft 239 kts 80°
2026-04-25 21:48 43.20716 -79.55635 2987 ft 238 kts 80°
2026-04-25 21:48 43.20898 -79.53382 2980 ft 237 kts 81°
2026-04-25 21:48 43.21080 -79.51135 2975 ft 236 kts 81°
2026-04-25 21:49 43.21260 -79.48902 2977 ft 236 kts 81°
2026-04-25 21:49 43.21440 -79.46669 2988 ft 236 kts 81°
2026-04-25 21:49 43.21624 -79.44389 2619 ft 250 kts 81°
2026-04-25 21:49 43.21818 -79.41982 2139 ft 255 kts 81°
2026-04-25 21:50 43.22004 -79.39636 2011 ft 247 kts 81°
2026-04-25 21:50 43.22185 -79.37349 1962 ft 235 kts 81°
2026-04-25 21:50 43.22359 -79.35155 1964 ft 230 kts 81°
2026-04-25 21:50 43.22475 -79.33686 1955 ft 230 kts 81°
2026-04-25 21:51 43.22707 -79.30779 1967 ft 234 kts 81°
2026-04-25 21:51 43.23205 -79.28706 1956 ft 229 kts 57°
2026-04-25 21:51 43.24278 -79.27124 1951 ft 228 kts 38°
2026-04-25 21:51 43.25704 -79.26182 1962 ft 233 kts 18°
2026-04-25 21:52 43.27352 -79.26063 1975 ft 244 kts 355°
2026-04-25 21:52 43.28946 -79.26903 1980 ft 257 kts 331°
2026-04-25 21:52 43.30194 -79.28692 1959 ft 268 kts 303°
2026-04-25 21:52 43.30745 -79.31156 1975 ft 275 kts 276°
2026-04-25 21:53 43.30615 -79.33790 1987 ft 277 kts 264°
2026-04-25 21:53 43.30348 -79.36415 1972 ft 278 kts 264°
2026-04-25 21:53 43.30080 -79.39053 1971 ft 279 kts 264°
2026-04-25 21:53 43.29823 -79.41690 1986 ft 279 kts 265°
2026-04-25 21:54 43.29571 -79.44332 1976 ft 279 kts 265°
2026-04-25 21:54 43.29321 -79.46976 1975 ft 279 kts 265°
2026-04-25 21:54 43.28895 -79.49565 1967 ft 281 kts 246°
2026-04-25 21:54 43.27694 -79.51628 1977 ft 279 kts 214°
2026-04-25 21:55 43.25979 -79.52646 1990 ft 271 kts 184°
2026-04-25 21:55 43.24153 -79.52479 1987 ft 260 kts 155°
2026-04-25 21:55 43.22638 -79.51270 1983 ft 248 kts 129°
2026-04-25 21:55 43.21675 -79.49393 1994 ft 238 kts 108°
2026-04-25 21:56 43.21251 -79.47246 1968 ft 231 kts 89°
2026-04-25 21:56 43.21275 -79.45794 1995 ft 229 kts 81°
2026-04-25 21:56 43.21542 -79.42879 1971 ft 232 kts 79°
2026-04-25 21:56 43.21766 -79.40681 1978 ft 233 kts 79°
2026-04-25 21:57 43.21984 -79.38476 1971 ft 234 kts 79°
2026-04-25 21:57 43.22193 -79.36293 1969 ft 233 kts 79°
2026-04-25 21:57 43.22399 -79.34099 1965 ft 233 kts 80°
2026-04-25 21:57 43.22604 -79.31900 1966 ft 233 kts 80°
2026-04-25 21:58 43.22875 -79.29715 1957 ft 231 kts 69°
2026-04-25 21:58 43.23703 -79.27854 1974 ft 229 kts 48°
2026-04-25 21:58 43.24973 -79.26537 1963 ft 231 kts 28°
2026-04-25 21:58 43.26536 -79.25973 1961 ft 237 kts
2026-04-25 21:59 43.28188 -79.26327 1955 ft 248 kts 343°
2026-04-25 21:59 43.29664 -79.27654 1972 ft 264 kts 318°
2026-04-25 21:59 43.30610 -79.29804 1967 ft 274 kts 290°
2026-04-25 22:00 43.30110 -79.34878 1981 ft 276 kts 251°
2026-04-25 22:00 43.29982 -79.37433 1969 ft 267 kts 290°
2026-04-25 22:00 43.30909 -79.39549 1993 ft 256 kts 326°
2026-04-25 22:00 43.32471 -79.40462 1975 ft 240 kts
2026-04-25 22:01 43.34129 -79.40404 1994 ft 240 kts
2026-04-25 22:01 43.35763 -79.40077 1980 ft 236 kts 22°
2026-04-25 22:01 43.37289 -79.39327 1969 ft 236 kts 24°
2026-04-25 22:01 43.38322 -79.38808 1984 ft 233 kts 23°
2026-04-25 22:02 43.40331 -79.37804 1993 ft 232 kts 24°
2026-04-25 22:02 43.41852 -79.37047 1990 ft 233 kts 24°
2026-04-25 22:02 43.43377 -79.36291 2014 ft 233 kts 23°
2026-04-25 22:02 43.44912 -79.35533 2007 ft 235 kts 23°
2026-04-25 22:03 43.46450 -79.34775 2010 ft 237 kts 22°
2026-04-25 22:03 43.48013 -79.34007 1996 ft 238 kts 23°
2026-04-25 22:03 43.49573 -79.33240 2004 ft 238 kts 23°
2026-04-25 22:03 43.51118 -79.32480 2012 ft 239 kts 23°
2026-04-25 22:04 43.52615 -79.31553 1995 ft 234 kts 39°
2026-04-25 22:04 43.53712 -79.29955 1991 ft 230 kts 58°
2026-04-25 22:04 43.54314 -79.27931 2005 ft 230 kts 78°
2026-04-25 22:04 43.54323 -79.25725 1986 ft 234 kts 98°
2026-04-25 22:05 43.53689 -79.23645 2011 ft 240 kts 121°
2026-04-25 22:05 43.52468 -79.22040 1998 ft 250 kts 144°
2026-04-25 22:05 43.50802 -79.21226 2001 ft 260 kts 167°
2026-04-25 22:05 43.48977 -79.21385 2004 ft 269 kts 191°
2026-04-25 22:06 43.47212 -79.22168 2000 ft 270 kts 195°
2026-04-25 22:06 43.45411 -79.23041 2010 ft 272 kts 196°
2026-04-25 22:06 43.43647 -79.23903 2004 ft 273 kts 195°
2026-04-25 22:06 43.41858 -79.24771 1992 ft 273 kts 196°
2026-04-25 22:07 43.40069 -79.25631 1973 ft 272 kts 195°
2026-04-25 22:07 43.38887 -79.26196 1978 ft 272 kts 195°
2026-04-25 22:07 43.36503 -79.27330 1975 ft 270 kts 195°
2026-04-25 22:07 43.34734 -79.28168 1964 ft 268 kts 195°
2026-04-25 22:08 43.32968 -79.29002 1958 ft 267 kts 195°
2026-04-25 22:08 43.31212 -79.29832 1970 ft 268 kts 195°
2026-04-25 22:08 43.29460 -79.30656 1976 ft 273 kts 195°
2026-04-25 22:08 43.27667 -79.31499 1976 ft 272 kts 195°
2026-04-25 22:09 43.25881 -79.32340 1967 ft 270 kts 195°
2026-04-25 22:09 43.24206 -79.33488 1954 ft 273 kts 218°
2026-04-25 22:09 43.23059 -79.35555 1979 ft 276 kts 248°
2026-04-25 22:09 43.22702 -79.38123 1976 ft 275 kts 277°
2026-04-25 22:10 43.23203 -79.40581 1972 ft 265 kts 306°
2026-04-25 22:10 43.24398 -79.42397 1980 ft 252 kts 332°
2026-04-25 22:10 43.25965 -79.43307 1995 ft 243 kts 353°
2026-04-25 22:10 43.27605 -79.43427 1980 ft 238 kts 13°
2026-04-25 22:11 43.29196 -79.42881 1987 ft 235 kts 21°
2026-04-25 22:11 43.30741 -79.42156 1978 ft 235 kts 23°
2026-04-25 22:11 43.32285 -79.41405 1974 ft 235 kts 23°
2026-04-25 22:11 43.33830 -79.40655 1978 ft 236 kts 23°
2026-04-25 22:12 43.35378 -79.39910 1989 ft 236 kts 24°
2026-04-25 22:12 43.36933 -79.39167 1980 ft 236 kts 23°
2026-04-25 22:12 43.38481 -79.38432 2005 ft 235 kts 23°
2026-04-25 22:12 43.38983 -79.38194 2011 ft 235 kts 23°
2026-04-25 22:13 43.41588 -79.36964 2017 ft 237 kts 23°
2026-04-25 22:13 43.43126 -79.36237 2021 ft 237 kts 22°
2026-04-25 22:13 43.44691 -79.35498 2015 ft 239 kts 22°
2026-04-25 22:13 43.46263 -79.34756 2022 ft 239 kts 22°
2026-04-25 22:14 43.47841 -79.34010 2017 ft 240 kts 22°
2026-04-25 22:14 43.49420 -79.33264 2014 ft 240 kts 22°
2026-04-25 22:14 43.51005 -79.32515 2019 ft 241 kts 22°
2026-04-25 22:14 43.52542 -79.31641 2003 ft 237 kts 37°
2026-04-25 22:15 43.53345 -79.30648 2012 ft 232 kts 52°
2026-04-25 22:15 43.54129 -79.28734 2019 ft 230 kts 72°
2026-04-25 22:15 43.54260 -79.25843 2009 ft 233 kts 99°
2026-04-25 22:16 43.52368 -79.22232 2024 ft 248 kts 146°
2026-04-25 22:16 43.50698 -79.21484 2014 ft 259 kts 169°
2026-04-25 22:16 43.48886 -79.21720 2015 ft 267 kts 192°
2026-04-25 22:16 43.47711 -79.22241 2020 ft 268 kts 195°
2026-04-25 22:17 43.45947 -79.23091 2018 ft 269 kts 196°
2026-04-25 22:17 43.44184 -79.23955 2002 ft 269 kts 196°
2026-04-25 22:17 43.42417 -79.24813 2008 ft 270 kts 195°
2026-04-25 22:17 43.40769 -79.26048 1977 ft 276 kts 224°
2026-04-25 22:18 43.39662 -79.29134 2003 ft 275 kts 255°
2026-04-25 22:18 43.39309 -79.30846 2006 ft 276 kts 255°
2026-04-25 22:18 43.38780 -79.33386 2002 ft 277 kts 254°
2026-04-25 22:18 43.38251 -79.35897 1985 ft 277 kts 255°
2026-04-25 22:19 43.37722 -79.38378 2600 ft 257 kts 255°
2026-04-25 22:19 43.37222 -79.40705 3774 ft 263 kts 255°
2026-04-25 22:19 43.36685 -79.43198 3973 ft 273 kts 255°
2026-04-25 22:19 43.36143 -79.45697 3990 ft 274 kts 254°
2026-04-25 22:20 43.35596 -79.48211 4018 ft 276 kts 254°
2026-04-25 22:20 43.35042 -79.50744 4012 ft 279 kts 254°
2026-04-25 22:20 43.34478 -79.53313 4020 ft 282 kts 254°
2026-04-25 22:20 43.33911 -79.55891 4024 ft 282 kts 254°
2026-04-25 22:21 43.33341 -79.58482 4014 ft 284 kts 254°
2026-04-25 22:21 43.32776 -79.61041 4009 ft 283 kts 254°
2026-04-25 22:21 43.32207 -79.63609 4005 ft 279 kts 254°
2026-04-25 22:21 43.31647 -79.66137 3996 ft 276 kts 255°
2026-04-25 22:22 43.31091 -79.68649 3992 ft 273 kts 255°
2026-04-25 22:22 43.30540 -79.71130 3991 ft 270 kts 255°
2026-04-25 22:22 43.29990 -79.73607 3999 ft 274 kts 255°
2026-04-25 22:22 43.29431 -79.76125 4008 ft 278 kts 255°
2026-04-25 22:23 43.28861 -79.78685 4004 ft 282 kts 254°
2026-04-25 22:23 43.28317 -79.81114 5022 ft 247 kts 255°
2026-04-25 22:23 43.27832 -79.83276 6448 ft 237 kts 256°
2026-04-25 22:23 43.27336 -79.85501 7256 ft 249 kts 257°
2026-04-25 22:24 43.26822 -79.87814 8143 ft 257 kts 257°
2026-04-25 22:24 43.26290 -79.90201 9044 ft 265 kts 258°
2026-04-25 22:24 43.26107 -79.91024 9351 ft 269 kts 259°